Regional Weather Roundup
Issued by NWS Upton, NY

Current Version | Previous Version | Text Only | Print | Product List | Glossary Off
Versions: 1 2 3 4 5 6 7 8 9 10 11 12 13 14 15 16 17 18 19 20 21 22 23 24 25 26 27
000 ASUS41 KOKX 200806 RWROKX Regional Weather Roundup National Weather Service New York NY 400 AM EDT SUN MAY 20 2018 Note: "FAIR" indicates few or no clouds below 12,000 feet with no significant weather and/or obstructions to visibility. NYZ071-072-176-178-NJZ106-104-200900- New York City Metro Area CITY SKY/WX TMP DP RH WIND PRES REMARKS Central Park CLOUDY 59 58 96 CALM 30.01F FOG Bronx Bot Gard N/A 55 54 94 CALM 29.99F Bronx Lehman C N/A 55 55 100 E1 N/A LaGuardia Arpt FOG 58 57 97 N3 29.98F VSB 1/4 Queens College N/A 59 59 100 S9 N/A Kennedy Intl FOG 58 58 100 S15 30.00F VSB 1/8 Breezy Point N/A 57 N/A N/A S10 N/A Brooklyn Coll N/A 59 57 94 SE3 N/A Staten Island N/A 63 63 100 S5 N/A Newark/Liberty FOG 57 57 100 CALM 29.98F VSB 1/4 Teterboro FOG 57 57 100 CALM 29.98S VSB 1/4 $$ NYZ177-179-078>081-200900- Long Island New York CITY SKY/WX TMP DP RH WIND PRES REMARKS Jones Beach N/A 57 N/A N/A S12G17 N/A Wantagh N/A 59 57 94 S10 N/A Hempstead N/A 59 59 100 SE6 30.02F Matinecock Pt N/A 54 N/A N/A NE5 N/A Farmingdale FOG 59 58 96 SW9 30.00F VSB 3/4 MacArthur/ISP CLOUDY 59 59 100 SW14 30.00F FOG Stony Brook N/A 61 61 100 S3 N/A Shirley CLOUDY 60 60 100 SW12G21 30.01S FOG Mt Sinai Harb N/A N/A N/A N/A S10G16 N/A Westhampton LGT RAIN 58 56 93 SW12 30.03S FOG East Hampton CLOUDY 57 57 99 SW7G16 30.01S FOG Southold N/A 61 63 100 SW12 N/A Montauk N/A 59 59 100 SW8G17 30.02F $$ NYZ052-065-067-200900- Hudson Valley CITY SKY/WX TMP DP RH WIND PRES REMARKS White Plains FOG 54 54 100 CALM 29.98F VSB 1/4 Larchmont Harb N/A 54 N/A N/A NW3 N/A Croton On Huds N/A 55 N/A N/A MISG N/A Somers N/A 54 54 100 S2 N/A Brewster N/A 54 54 100 W1 N/A Newburgh CLOUDY 55 55 100 CALM 29.98F FOG Montgomery CLOUDY 55 54 96 CALM 29.96F Otisville N/A 54 54 100 S5 N/A Warwick N/A 55 55 100 W2 N/A Suffern N/A 54 54 100 NW1 N/A Poughkeepsie CLOUDY 57 55 93 CALM 29.95F FOG Albany CLOUDY 58 55 90 S12 29.90F $$ NJZ001-105-106-008-010-013-015-019>022-104-200900- New Jersey CITY SKY/WX TMP DP RH WIND PRES REMARKS Newark/Liberty FOG 57 57 100 CALM 29.98F VSB 1/4 Teterboro FOG 57 57 100 CALM 29.98S VSB 1/4 Caldwell FOG 56 56 100 CALM 29.99F VSB 1/2 Somerville FOG 57 57 100 NW3 29.97F VSB 3/4 Linden CLOUDY 58 58 100 CALM 29.98F FOG Perth Amboy N/A 57 N/A N/A NE1 N/A Sussex CLOUDY 56 56 100 CALM 29.97F FOG Andover N/A 58 58 100 CALM 29.97F Trenton CLOUDY 68 67 96 S8 29.98F Millville CLOUDY 68 67 96 VRB3 30.02F Atlantic City CLOUDY 68 67 96 S8 30.03F Wrightstown MOCLDY 70 70 100 S14 29.97 Toms River CLOUDY 68 67 96 SW9 30.01F Belmar CLOUDY 67 67 100 S10 30.01F $$ PAZ047>061-062-071-200900- Eastern Pennsylvania CITY SKY/WX TMP DP RH WIND PRES REMARKS Philadelphia CLOUDY 70 67 90 S14 29.99S Allentown LGT RAIN 59 56 89 CALM 29.97F Scranton CLOUDY 62 62 100 SW6 29.95F $$ CTZ002-004>006-009-010-012-RIZ004-006-007-MAZ004-011-015-200900- Southern New England In CT CITY SKY/WX TMP DP RH WIND PRES REMARKS Bradley Intl DRIZZLE 56 56 100 S8 29.97F FOG Hartford CLOUDY 58 58 100 S5 29.97F Danbury CLOUDY 55 55 100 N3 29.99F FOG Wtrbury/Oxford FOG 56 56 100 SW3 30.00S VSB 1/4 Norwalk Harbor N/A 52 N/A N/A NW1 N/A Bridgeport FOG 55 54 96 CALM 29.98F VSB 1/2 Meriden FOG 55 55 100 S6 29.98F VSB 3/4 New Haven FOG 56 56 100 CALM 29.98F VSB 1/2 Chester FOG 59 59 100 S8 30.00S VSB<1/4 Groton CLOUDY 57 57 100 SW8 30.00S FOG Willimantic LGT RAIN 59 58 96 NW3 29.98F In RI CITY SKY/WX TMP DP RH WIND PRES REMARKS Providence LGT RAIN 63 62 97 SW9 29.99F Block Island LGT RAIN 57 57 100 SW16 30.02F VSB 1/2 Westerly CLOUDY 58 58 100 SW6 30.01F FOG In MA CITY SKY/WX TMP DP RH WIND PRES REMARKS Boston CLOUDY 60 59 96 S8 29.96 Worcester LGT RAIN 57 57 100 S12 29.96F VSB 1/4 Westfield LGT RAIN 55 55 100 S6 29.95F FOG Provincetown LGT RAIN 57 57 100 SW18G24 30.00S Nantucket CLOUDY 58 58 100 SW17G26 30.05S FOG $$ ANZ330-335-338-340-345-350-353-355-200900- Coastal Marine Observations STATION/POSITION TIME SKY/WX TEMP WIND PRES VSBY WAVE AIR SEA DIR/SP/G HT/PER (UTC) (F) (DEG/KT/KT) (MB) (MI) (FT/S) NY Harb Entrance 0750 57 53 200/ 14/ 16 1015.8 4/ 7 20 S Fire Island 0750 56 51 210/ 17/ 21 1016.2 4/ 4 23 SSW Montauk P 0750 56 50 210/ 17/ 21 1016.7 4/ 5 15 E Barnegat Li 0730 53 N/A 5/ 6 Hudson Canyon 0750 58 51 200/ 14/ 16 1017.9 4/ 8 Kings Point 0724 55 54 330/ 1/ 7 1016.2 Execution Rocks NOT AVBL Western LI Sound NOT AVBL Central LI Sound 0730 55 200/ 8/ 10 N/A 1 Robbins Reef 0742 58 180/ 10/ 12 1015.7 $$ >>>>>>>>>>>>>>>>>>>>>>>>>>>> KEY <<<<<<<<<<<<<<<<<<<<<<<<<<< > < > SKY/WX - Sky Condition/Present Weather < > TMP - Temperature in Fahrenheit < > DP - Dew Point in Fahrenheit < > RH - Relative Humidity in Percent < > WIND - Direction (from) and Speed in MPH < > PRES - Mean Sea Level Pressure (inches of Hg) < > WCI - Wind Chill Index < > VSB - Visibility in Miles < > HX - Heat Index < > TC - Temperature in Celsius < > VRB - Varibale Wind Direction < > < >>>>>>>>>>>>>>>>>>>>>>>>>>>> KEY <<<<<<<<<<<<<<<<<<<<<<<<<<<

USA.gov is the U.S. government's official web portal to all federal, state and local government web resources and services.